Location: Unspecified
(52.1384°N, 8.6525°W)
Time: 13:08:26
(UTC+00:00)

UKube-1 - Visible Passes

Search period start: 16 January 2021 00:00
Search period end: 26 January 2021 00:00
Orbit: 612 x 618 km, 98.4° (Epoch: 16 January)

Date Brightness Start Highest point End Pass type
(mag) Time Alt. Az. Time Alt. Az. Time Alt. Az.
16 Jan ? 06:10:06 10° SE 06:14:01 35° ENE 06:17:57 10° N visible
16 Jan ? 07:46:10 10° SSW 07:50:01 31° W 07:53:53 10° NNW visible
17 Jan ? 06:25:36 10° SE 06:29:45 48° ENE 06:33:54 10° N visible
18 Jan ? 05:08:51 10° ENE 05:10:20 12° NE 05:11:48 10° NNE visible
18 Jan ? 06:41:13 10° SSE 06:45:29 66° ENE 06:49:47 10° N visible
19 Jan ? 05:23:28 10° E 05:25:55 15° NE 05:28:22 10° NNE visible
19 Jan ? 06:56:58 10° SSE 07:01:17 89° WSW 07:05:37 10° NNW visible
20 Jan ? 05:38:27 10° ESE 05:41:32 20° ENE 05:44:38 10° NNE visible
20 Jan ? 07:12:49 10° S 07:17:05 65° WSW 07:21:24 10° NNW visible
21 Jan ? 05:53:39 10° ESE 05:57:11 25° ENE 06:00:43 10° N visible
21 Jan ? 07:28:48 10° S 07:32:56 46° W 07:37:07 10° NNW visible
22 Jan ? 06:09:00 10° SE 06:12:52 33° ENE 06:16:44 10° N visible
22 Jan ? 07:44:55 10° SSW 07:48:49 33° W 07:52:45 10° NNW visible
23 Jan ? 06:24:28 10° SE 06:28:35 45° ENE 06:32:42 10° N visible
24 Jan ? 05:08:02 10° ENE 05:09:11 11° NE 05:10:22 10° NE visible
24 Jan ? 06:40:05 10° SSE 06:44:19 62° ENE 06:48:35 10° N visible
25 Jan ? 05:22:28 10° E 05:24:47 14° NE 05:27:04 10° NNE visible
25 Jan ? 06:55:47 10° SSE 07:00:05 86° ENE 07:04:26 10° NNW visible
